Flag for Colombia Weather past 2 weeks in Bogota, Colombia

Now
64 °F

Partly sunny.


Feels Like: 64 °F
Forecast: N/A
Wind: 8 mph from East

Location: Bogota / Eldorado

Current Time: Jul 31, 2014 at 4:20:39 PM

Latest Report: Jul 31, 2014 at 4:00 PM


Visibility: N/A

Pressure: 30.28 "Hg

Humidity: 49%

Dew point: 45 °F

Location of BogotaLocation

Historic Weather in Bogota — Graph

°F

Bogota temperature yesterday

Maximum temperature yesterday: 66 °F (at 2:00 PM)
Minimum temperature yesterday: 48 °F (at 5:00 AM)
Average temperature yesterday: 57 °F

Past Weeks' High & Low Weather Summary

 TemperatureHumidityPressure
High70 °F (Jul 26, 1:00 PM)94% (Jul 19, 1:00 AM)30.45 "Hg (Jul 19, 1:00 AM)
Low46 °F (Jul 29, 3:00 AM)35% (Jul 25, 3:00 PM)30.24 "Hg (Jul 25, 5:00 PM)
Average57 °F69%30.36 "Hg
* Reported Jul 16 3:00 PM — Jul 31 3:00 PM, Bogota, Weather by CustomWeather, © 2014

Note: Actual official high and low records may vary slightly from our data, if they occured in-between our weather recording intervals... More about our weather records

Advertising

Bogota weather history for previous 24 hours

 ConditionsComfort  
Time TempWeatherWind HumidityBarometerVisibility
3:00 PM
Jul 31
66 °FPartly sunny.8 mph43%30.30 "HgN/A
2:00 PM66 °FPartly sunny.10 mph49%30.33 "HgN/A
1:00 PM66 °FPartly sunny.12 mph43%30.35 "HgN/A
12:00 PM66 °FPartly sunny.18 mph49%30.37 "HgN/A
11:00 AM63 °FPartly sunny.16 mph52%30.39 "HgN/A
10:00 AM63 °FScattered clouds.18 mph52%30.39 "HgN/A
9:00 AM61 °FPartly sunny.10 mph59%30.40 "HgN/A
8:00 AM57 °FPartly sunny.12 mph77%30.40 "HgN/A
7:00 AM52 °FScattered showers. Partly sunny.8 mph88%30.39 "HgN/A
6:00 AM52 °FScattered showers. Scattered clouds.5 mph88%30.37 "HgN/A
5:00 AM52 °FPassing clouds.5 mph88%30.36 "HgN/A
4:00 AM52 °FScattered showers. Passing clouds.2 mph82%30.36 "HgN/A
3:00 AM52 °FPassing clouds.6 mph82%30.36 "HgN/A
2:00 AM48 °FPassing clouds.2 mph87%30.38 "HgN/A
1:00 AM50 °FPassing clouds.2 mph88%30.40 "HgN/A
12:00 AM55 °FPassing clouds.9 mph72%30.43 "HgN/A
11:00 PM
Jul 30
55 °FPassing clouds.12 mph72%30.43 "HgN/A
10:00 PM54 °FPassing clouds.7 mph82%30.42 "HgN/A
9:00 PM55 °FPassing clouds.2 mph72%30.41 "HgN/A
8:00 PM55 °FPassing clouds.3 mph67%30.38 "HgN/A
7:00 PM59 °FPassing clouds.7 mph59%30.36 "HgN/A
6:00 PM61 °FPassing clouds.15 mph55%30.34 "HgN/A
5:00 PM63 °FScattered clouds.14 mph52%30.30 "HgN/A
4:00 PM64 °FScattered clouds.14 mph52%30.31 "HgN/A
Weather by CustomWeather, © 2014

See weather overviewHow to use our weather pages